Location: Oberwangen
(47.4286°N, 8.9679°E)
Time: 08:48:52
(UTC+00:00)

MTI - Pass Details

Date: 20 June 2021
Orbit: 376 x 386 km, 97.5° (Epoch: 04 August)

Event Time Altitude Azimuth Distance (km) Brightness Sun altitude
Rises 23:26:54 0° 8° (N) 2,307 9.1 -19.1°
Reaches altitude 10° 23:28:55 10° 2° (N) 1,444 7.7 -19.1°
Maximum altitude 23:31:54 48° 287° (WNW) 523 4.2 -19.1°
Enters shadow 23:32:10 47° 267° (W) 536 4.2 -19.1°
